Location: �terpigny
(49.8910°N, 2.9249°E)
Time: 10:59:57
(UTC+00:00)

Cosmos 332 Rocket - Visible Passes

Search period start: 29 May 2022 00:00
Search period end: 08 June 2022 00:00
Orbit: 682 x 702 km, 74.0° (Epoch: 28 May)

Date Brightness Start Highest point End Pass type
(mag) Time Alt. Az. Time Alt. Az. Time Alt. Az.
29 May 3.7 00:49:27 32° SSW 00:51:43 87° WNW 00:56:33 10° NNE visible
29 May 5.9 02:29:51 10° W 02:32:55 17° NW 02:35:58 10° N visible
29 May 4.6 23:50:39 29° SE 23:52:10 37° ESE 23:56:34 10° NE visible
30 May 5.0 01:29:18 16° WSW 01:32:37 34° NW 01:37:01 10° N visible
30 May 5.7 22:51:49 14° ESE 22:52:58 15° E 22:55:33 10° ENE visible
31 May 3.7 00:30:28 32° SSW 00:32:42 81° WNW 00:37:33 10° NNE visible
31 May 6.0 02:11:05 10° W 02:13:57 16° NW 02:16:52 10° N visible
31 May 4.5 23:31:37 31° SE 23:33:08 40° ESE 23:37:36 10° NE visible
01 Jun 5.1 01:10:16 15° WSW 01:13:39 32° NW 01:17:58 10° N visible
01 Jun 5.6 22:32:43 15° ESE 22:33:53 16° E 22:36:45 10° ENE visible
02 Jun 3.8 00:11:22 30° SW 00:13:42 75° WNW 00:18:31 10° NNE visible
02 Jun 6.1 01:52:18 10° WNW 01:55:01 15° NW 01:57:44 10° N visible
02 Jun 4.3 23:12:26 31° SSE 23:14:06 43° ESE 23:18:38 10° NE visible
03 Jun 5.2 00:51:05 13° WSW 00:54:40 30° NW 00:58:55 10° N visible
03 Jun 5.5 22:13:29 15° ESE 22:14:50 17° E 22:17:54 10° ENE visible
03 Jun 3.9 23:52:08 27° SW 23:54:41 70° WNW 23:59:30 10° NNE visible
04 Jun 6.2 01:33:33 10° WNW 01:36:04 14° NW 01:38:35 10° N visible
04 Jun 4.2 22:53:08 30° SSE 22:55:03 46° ESE 22:59:39 10° NE visible
05 Jun 5.4 00:31:46 11° WSW 00:35:41 28° NW 00:39:51 10° N visible
05 Jun 5.4 21:54:05 16° ESE 21:55:45 18° E 21:59:01 10° NE visible
05 Jun 4.0 23:32:44 23° SW 23:35:40 65° WNW 23:40:28 10° NNE visible
06 Jun 6.3 01:14:48 10° WNW 01:17:07 13° NW 01:19:25 10° NNW visible
06 Jun 4.1 22:33:38 26° S 22:36:01 50° ESE 22:40:40 10° NNE visible
07 Jun 5.6 00:12:39 10° WSW 00:16:42 26° NW 00:20:46 10° N visible
07 Jun 5.3 21:34:30 15° SE 21:36:41 20° E 21:40:08 10° NE visible
07 Jun 4.2 23:13:08 18° SW 23:16:39 60° WNW 23:21:26 10° NNE visible
